Location: Castellare
(42.4669°N, 9.4728°E)
Time: 03:00:55
(UTC+00:00)

Meteor 2-10 Rocket - Pass Details

Date: 17 February 2020
Orbit: 734 x 884 km, 81.2° (Epoch: 05 April)

Event Time Altitude Azimuth Distance (km) Brightness Sun altitude
Exits shadow 04:27:19 42° 287° (WNW) 1,124 3.9 -20.8°
Drops below altitude 10° 04:32:13 10° 356° (N) 2,327 6.0 -19.9°
Sets 04:34:40 0° 4° (N) 3,237 6.8 -19.5°
